VK2RZ Weather Reports


Display with metric or nautical units.
time (UTC)temp
F
wind
direction
speed
MPH
gust
MPH
rain 1hr
in
rain 24hr
in
rain mn
in
humidity
%
barometer
mb
20260906203239 57 249 2.0 5.0 0.00 0.00 0.00 8 1022.1
20260906202239 57 0 0.0 0.0 0.00 0.00 0.00 8 1021.9
20260906201239 57 247 3.0 5.0 0.00 0.00 0.00 8 1021.8
20260906200239 57 249 4.0 5.0 0.00 0.00 0.00 8 1021.6
20260906195239 57 254 3.0 8.0 0.00 0.00 0.00 8 1021.6
20260906194239 57 249 3.0 5.0 0.00 0.00 0.00 8 1021.6
20260906193239 57 243 1.0 6.0 0.00 0.00 0.00 8 1021.7
20260906192239 57 249 3.0 6.0 0.00 0.00 0.00 8 1021.8
20260906191239 57 251 5.0 8.0 0.00 0.00 0.00 8 1021.9
20260906190239 57 239 10.0 10.0 0.00 0.00 0.00 8 1021.9
20260906185239 57 242 5.0 10.0 0.00 0.00 0.00 8 1022.0
20260906184239 57 238 6.0 13.0 0.00 0.00 0.00 8 1022.0
20260906183239 57 256 5.0 5.0 0.00 0.00 0.00 8 1022.2
20260906182239 57 258 3.0 7.0 0.00 0.00 0.00 8 1022.2
20260906181239 57 256 5.0 9.0 0.00 0.00 0.00 8 1022.2
20260906180239 57 251 2.0 4.0 0.00 0.00 0.00 8 1022.2
20260906175239 57 250 1.0 5.0 0.00 0.00 0.00 8 1022.3
20260906174239 57 239 4.0 6.0 0.00 0.00 0.00 8 1022.2
20260906173239 57 262 7.0 10.0 0.00 0.00 0.00 8 1022.1
20260906172749 57 248 3.0 8.0 0.00 0.00 0.00 8 1022.1
20260906171749 57 245 1.0 6.0 0.00 0.00 0.00 8 1022.1
20260906170749 57 252 2.0 4.0 0.00 0.00 0.00 8 1022.1
20260906165749 57 249 4.0 5.0 0.00 0.00 0.00 8 1022.1
20260906164749 57 266 4.0 5.0 0.00 0.00 0.00 8 1022.1
20260906163749 57 243 4.0 6.0 0.00 0.00 0.00 8 1022.1
20260906162749 58 260 4.0 5.0 0.00 0.00 0.00 8 1022.2
20260906161749 58 264 1.0 7.0 0.00 0.00 0.00 8 1022.3
20260906160749 58 252 2.0 5.0 0.00 0.00 0.00 8 1022.4
20260906155748 58 247 2.0 4.0 0.00 0.00 0.00 8 1022.4
20260906154748 58 260 3.0 5.0 0.00 0.00 0.00 8 1022.4
20260906153748 58 239 6.0 9.0 0.00 0.00 0.00 8 1022.5
20260906152748 58 251 2.0 6.0 0.00 0.00 0.00 8 1022.6
20260906151747 58 249 4.0 8.0 0.00 0.00 0.00 8 1022.7
20260906150747 58 251 3.0 10.0 0.00 0.00 0.00 8 1022.8
20260906145747 58 249 4.0 9.0 0.00 0.00 0.00 8 1022.9
20260906144747 58 250 2.0 5.0 0.00 0.00 0.00 8 1022.9
20260906143747 59 249 1.0 5.0 0.00 0.00 0.00 8 1022.7
20260906142747 59 248 4.0 5.0 0.00 0.00 0.00 8 1022.7
20260906141747 59 239 3.0 5.0 0.00 0.00 0.00 8 1022.6
20260906140747 59 258 5.0 7.0 0.00 0.00 0.00 8 1022.7
20260906135747 59 246 3.0 5.0 0.00 0.00 0.00 8 1022.6
20260906134747 59 239 2.0 4.0 0.00 0.00 0.00 8 1022.5
20260906133747 60 233 2.0 6.0 0.00 0.00 0.00 8 1022.5
20260906132747 60 252 4.0 7.0 0.00 0.00 0.00 8 1022.5
20260906131747 60 255 3.0 5.0 0.00 0.00 0.00 8 1022.5
20260906130747 60 249 2.0 5.0 0.00 0.00 0.00 8 1022.6
20260906125747 59 237 4.0 5.0 0.00 0.00 0.00 8 1022.5
20260906124747 59 235 2.0 4.0 0.00 0.00 0.00 8 1022.6
20260906123747 59 229 2.0 4.0 0.00 0.00 0.00 8 1022.6
20260906122747 59 228 3.0 4.0 0.00 0.00 0.00 8 1022.6
20260906121747 59 227 2.0 2.0 0.00 0.00 0.00 8 1022.6
20260906120747 60 0 0.0 3.0 0.00 0.00 0.00 8 1022.7
20260906115747 60 0 0.0 6.0 0.00 0.00 0.00 7 1022.6
20260906114747 60 185 1.0 8.0 0.00 0.00 0.00 7 1022.5
20260906113747 60 163 3.0 9.0 0.00 0.00 0.00 7 1022.5
20260906112747 60 180 3.0 8.0 0.00 0.00 0.00 7 1022.5
20260906111747 60 231 1.0 6.0 0.00 0.00 0.00 7 1022.4
20260906110747 60 211 5.0 6.0 0.00 0.00 0.00 7 1022.2
20260906105747 60 189 3.0 9.0 0.00 0.00 0.00 7 1022.1
20260906104746 60 166 5.0 5.0 0.00 0.00 0.00 7 1022.1
20260906103746 60 156 2.0 5.0 0.00 0.00 0.00 7 1022.0
20260906102746 60 156 2.0 4.0 0.00 0.00 0.00 7 1021.9
20260906101746 61 192 3.0 4.0 0.00 0.00 0.00 7 1021.6
20260906100746 61 185 2.0 6.0 0.00 0.00 0.00 7 1021.6
20260906095745 61 160 3.0 6.0 0.00 0.00 0.00 7 1021.4
20260906094745 61 162 3.0 11.0 0.00 0.00 0.00 7 1021.4
20260906093745 61 153 5.0 9.0 0.00 0.00 0.00 7 1021.3
20260906092745 61 147 2.0 8.0 0.00 0.00 0.00 7 1021.2
20260906091745 61 205 3.0 6.0 0.00 0.00 0.00 7 1021.3
20260906090745 61 205 1.0 8.0 0.00 0.00 0.00 7 1021.0
20260906085745 61 197 5.0 7.0 0.00 0.00 0.00 7 1021.0
20260906084745 61 206 2.0 6.0 0.00 0.00 0.00 7 1020.9
20260906083745 61 162 2.0 8.0 0.00 0.00 0.00 7 1020.7
20260906082745 61 175 8.0 10.0 0.00 0.00 0.00 7 1020.8
20260906081744 62 122 3.0 4.0 0.00 0.00 0.00 7 1020.6
20260906080744 62 175 2.0 9.0 0.00 0.00 0.00 7 1020.4
20260906075743 62 143 10.0 14.0 0.00 0.00 0.00 7 1020.2
20260906074743 62 113 2.0 13.0 0.00 0.00 0.00 7 1020.0
20260906073743 63 130 2.0 6.0 0.00 0.00 0.00 7 1019.8
20260906072743 63 122 10.0 15.0 0.00 0.00 0.00 7 1019.6
20260906071743 63 168 6.0 11.0 0.00 0.00 0.00 6 1019.5
20260906070743 63 131 3.0 8.0 0.00 0.00 0.00 6 1019.2
20260906065743 63 151 1.0 5.0 0.00 0.00 0.00 6 1019.1
20260906064743 64 115 2.0 9.0 0.00 0.00 0.00 6 1019.0
20260906063743 64 143 6.0 11.0 0.00 0.00 0.00 6 1018.9
20260906062743 64 133 4.0 9.0 0.00 0.00 0.00 6 1018.7
20260906061743 64 168 8.0 13.0 0.00 0.00 0.00 6 1018.6
20260906060743 65 162 3.0 11.0 0.00 0.00 0.00 6 1018.6
20260906055743 65 141 3.0 11.0 0.00 0.00 0.00 6 1018.5
20260906054743 65 160 2.0 16.0 0.00 0.00 0.00 5 1018.3
20260906053743 66 175 3.0 10.0 0.00 0.00 0.00 5 1017.9
20260906052743 67 139 3.0 10.0 0.00 0.00 0.00 5 1018.0
20260906051743 67 116 5.0 9.0 0.00 0.00 0.00 5 1017.9
20260906050743 69 137 6.0 8.0 0.00 0.00 0.00 5 1017.6
20260906045743 68 131 8.0 9.0 0.00 0.00 0.00 5 1017.5
20260906044743 69 108 7.0 9.0 0.00 0.00 0.00 5 1017.4
20260906043743 68 202 2.0 8.0 0.00 0.00 0.00 5 1017.3
20260906042743 68 102 6.0 11.0 0.00 0.00 0.00 5 1017.3
20260906041743 69 101 4.0 12.0 0.00 0.00 0.00 4 1017.2
20260906040742 68 89 7.0 9.0 0.00 0.00 0.00 5 1017.2
20260906035742 69 185 3.0 10.0 0.00 0.00 0.00 4 1017.1
20260906034742 68 86 4.0 13.0 0.00 0.00 0.00 4 1017.2
20260906033742 70 175 6.0 6.0 0.00 0.00 0.00 4 1017.0
20260906032742 70 175 3.0 8.0 0.00 0.00 0.00 4 1017.0
20260906031742 69 108 3.0 8.0 0.00 0.00 0.00 4 1016.9
20260906030742 68 193 4.0 11.0 0.00 0.00 0.00 4 1016.9
20260906025742 70 197 8.0 12.0 0.00 0.00 0.00 4 1016.6
20260906024742 70 210 6.0 9.0 0.00 0.00 0.00 4 1016.8
20260906023742 70 287 8.0 10.0 0.00 0.00 0.00 4 1016.8
20260906022742 69 215 10.0 16.0 0.00 0.00 0.00 4 1016.8
20260906021742 69 225 5.0 9.0 0.00 0.00 0.00 4 1016.8
20260906020742 69 153 9.0 9.0 0.00 0.00 0.00 4 1016.9
20260906015742 68 220 9.0 13.0 0.00 0.00 0.00 4 1016.8
20260906014742 68 212 10.0 17.0 0.00 0.00 0.00 4 1016.8
20260906013742 68 209 4.0 15.0 0.00 0.00 0.00 4 1016.9
20260906012741 69 193 4.0 11.0 0.00 0.00 0.00 4 1017.1
20260906011741 68 249 5.0 10.0 0.00 0.00 0.00 4 1017.0
20260906010741 67 190 5.0 15.0 0.00 0.00 0.00 4 1017.0
20260906005741 67 242 2.0 11.0 0.00 0.00 0.00 4 1017.0
20260906004741 67 199 3.0 15.0 0.00 0.00 0.00 4 1016.8
20260906003741 67 230 13.0 18.0 0.00 0.00 0.00 4 1016.7
20260906002741 66 233 4.0 5.0 0.00 0.00 0.00 4 1016.8
20260906001741 66 213 10.0 14.0 0.00 0.00 0.00 4 1016.7
20260906000741 65 224 3.0 12.0 0.00 0.00 0.00 4 1016.6
20260905235741 65 249 5.0 17.0 0.00 0.00 0.00 4 1016.3
20260905234740 64 214 5.0 11.0 0.00 0.00 0.00 5 1016.3
20260905233740 64 228 4.0 18.0 0.00 0.00 0.00 4 1016.3
20260905232740 64 214 8.0 15.0 0.00 0.00 0.00 5 1016.2
20260905231740 63 201 5.0 14.0 0.00 0.00 0.00 5 1016.2
20260905230740 63 266 8.0 17.0 0.00 0.00 0.00 5 1016.2
20260905225740 62 263 13.0 17.0 0.00 0.00 0.00 5 1016.1
20260905224740 62 210 10.0 21.0 0.00 0.00 0.00 5 1015.9
20260905223740 62 254 7.0 16.0 0.00 0.00 0.00 5 1016.0
20260905222740 61 244 9.0 23.0 0.00 0.00 0.00 5 1016.1
20260905221740 61 256 17.0 19.0 0.00 0.00 0.00 5 1016.0
20260905220740 61 203 8.0 11.0 0.00 0.00 0.00 5 1015.9
20260905215740 61 202 8.0 14.0 0.00 0.00 0.00 5 1015.6
20260905214740 60 254 10.0 16.0 0.00 0.00 0.00 5 1015.4
20260905213740 60 222 4.0 15.0 0.00 0.00 0.00 5 1015.2
20260905212740 59 285 3.0 9.0 0.00 0.00 0.00 5 1015.2
20260905211740 59 296 2.0 4.0 0.00 0.00 0.00 5 1015.1
20260905210740 59 0 0.0 3.0 0.00 0.00 0.00 5 1015.2
20260905205740 58 293 1.0 2.0 0.00 0.00 0.00 5 1014.7
20260905204739 57 0 0.0 0.0 0.00 0.00 0.00 5 1014.7
20260905203739 57 0 0.0 3.0 0.00 0.00 0.00 5 1014.3